Theta_e
318 320 319 318 319 318 315 316 319 322 315 318 319 319 322 328 332 341 343 345 345 346 347 346 345 343 343 342 343 343 343 343 343 345 344 346 348 341 349 353 349 348 347 348
328 325 324 324 320 319 316 317 315 317 317 318 324 329 337 337 339 342 343 347 348 347 347 347 347 346 345 344 343 343 343 343 344 346 348 348 349 345 352 351 350 347 349 349
328 323 324 328 322 321 320 328 326 319 323 327 328 330 332 336 340 342 343 348 348 347 346 346 346 346 346 345 344 344 344 345 347 349 350 350 350 350 351 350 349 349 347 342
326 326 332 326 324 325 329 329 328 329 330 329 330 331 336 338 342 342 343 347 347 346 347 347 346 346 345 346 346 347 349 350 352 354 353 353 352 352 351 349 348 344 341 343
327 326 326 328 329 330 329 328 328 329 329 329 329 335 339 338 342 346 348 345 346 347 347 347 347 347 348 348 350 350 351 352 354 354 354 354 354 352 349 347 341 339 336 333
321 328 330 326 329 327 328 327 327 328 327 328 327 331 330 334 342 341 347 351 347 347 348 348 348 349 349 350 350 350 350 352 355 355 354 353 350 348 345 340 339 331 328 328
321 323 323 326 326 327 332 330 327 328 327 327 326 327 328 330 335 343 340 348 351 349 350 350 350 350 350 350 349 348 350 351 351 351 350 348 345 342 340 336 327 322 320 330
319 324 326 325 323 327 326 327 328 328 328 327 327 326 327 329 332 330 338 343 353 351 350 351 351 351 351 348 347 349 349 348 345 344 343 341 340 337 327 321 317 317 321 326
319 320 320 325 324 322 322 326 326 327 327 328 327 326 326 327 329 332 330 344 351 354 352 352 353 352 349 347 347 346 345 343 342 340 333 327 322 318 316 316 316 317 318 320
319 319 320 321 318 320 322 324 324 324 325 326 327 327 327 325 328 330 337 332 343 351 353 353 353 350 348 347 343 341 338 338 334 328 324 323 322 321 318 317 316 315 315 315
316 315 317 317 320 320 319 320 321 322 324 324 325 324 324 325 327 333 337 343 344 346 351 352 350 349 347 345 343 341 338 334 330 327 327 325 324 323 321 319 318 316 316 316
317 316 316 317 317 318 319 318 318 319 322 323 324 324 324 323 327 334 336 343 347 347 347 346 345 345 344 342 340 336 337 334 331 331 329 328 325 323 322 321 320 320 318 316
316 317 316 317 317 318 318 318 317 318 322 323 322 322 324 324 324 334 337 338 341 342 343 342 338 340 336 335 332 329 327 328 331 334 329 329 325 324 322 321 320 320 317 314
319 318 318 320 320 320 319 319 319 319 320 321 323 322 323 325 325 332 336 335 338 339 338 337 335 333 331 330 327 326 328 329 331 330 330 327 324 324 322 321 320 317 314 313
319 318 318 318 319 320 320 321 320 321 323 323 323 324 323 325 327 330 332 334 335 334 335 332 331 329 328 324 323 323 322 327 327 326 324 324 324 322 320 318 315 312 312 312
317 316 316 317 318 319 320 321 321 322 323 324 322 323 325 325 329 328 330 331 332 329 327 327 326 326 326 325 323 321 321 320 320 323 322 320 319 318 316 313 312 312 312 313
318 317 318 317 317 318 318 320 322 322 321 321 320 322 324 327 328 329 329 328 325 325 325 325 326 326 326 325 324 323 324 322 320 319 319 319 317 313 311 311 312 312 312 312
319 319 319 319 319 319 319 320 321 321 322 321 322 322 324 325 326 328 329 327 324 323 323 325 323 324 323 323 324 324 320 319 318 318 316 313 311 311 311 311 310 310 310 310
319 318 318 319 320 320 320 320 321 321 321 322 322 322 324 325 326 327 328 328 324 325 324 321 320 324 322 321 321 320 319 318 317 312 310 310 310 310 310 310 311 311 311 311
318 318 318 318 319 320 320 321 321 321 321 321 322 323 323 323 325 328 328 327 327 326 322 321 321 322 322 320 319 318 316 312 309 309 309 309 310 310 311 311 311 310 310 311
317 317 318 318 319 319 320 321 319 319 320 321 322 322 323 323 326 326 327 327 324 319 317 319 320 320 319 318 315 310 308 308 307 306 305 305 306 306 306 307 308 308 308 309
317 317 318 318 320 320 320 320 320 320 319 320 320 323 324 325 326 326 326 325 320 320 319 318 318 318 315 311 308 307 307 307 307 307 307 305 304 305 306 307 307 307 307 307
317 318 318 317 319 321 320 320 321 323 324 324 324 325 325 326 326 325 323 323 323 319 316 317 316 313 309 307 307 307 308 308 308 308 306 304 303 303 304 305 304 303 304 304
318 318 317 317 317 321 322 322 321 322 322 324 326 324 326 325 323 324 324 323 320 316 315 314 311 308 308 309 309 310 309 309 309 308 307 306 304 303 302 300 300 301 301 301
317 318 317 316 316 316 318 321 319 319 320 319 319 322 323 321 320 323 323 320 316 315 313 312 310 310 310 310 310 310 310 310 309 309 308 307 306 305 303 301 301 300 300 300
317 318 318 318 317 318 317 316 318 320 319 317 320 319 322 322 322 322 321 320 316 314 313 313 312 312 312 313 313 313 312 311 310 310 309 308 308 307 306 306 301 299 300 299
315 315 316 316 317 318 318 319 319 317 317 319 321 319 317 316 320 322 321 320 318 315 313 312 313 313 313 314 314 313 313 313 312 311 309 309 309 308 307 307 306 302 300 300
Wind_Speed
5 8 4 6 9 7 9 8 9 12 10 11 7 9 13 22 21 19 23 26 30 31 28 26 27 23 22 24 30 38 38 33 25 22 23 21 23 22 18 12 13 15 17 19
4 5 4 6 8 9 8 5 9 6 6 2 20 11 10 15 18 20 28 28 28 27 25 25 25 23 22 23 24 26 29 27 24 22 21 22 23 21 15 16 16 18 19 21
5 4 8 6 3 5 2 4 2 5 3 8 7 12 9 15 16 24 31 32 30 30 30 28 26 24 23 22 21 21 23 24 23 22 21 23 21 20 17 16 16 18 19 18
5 3 7 3 4 3 9 1 3 3 9 12 15 25 15 10 13 23 29 34 34 34 34 30 27 25 23 21 20 20 22 22 20 19 21 22 22 18 15 14 16 15 13 12
4 6 5 3 2 3 3 3 3 2 8 13 29 2 4 24 16 10 18 29 30 35 38 34 31 28 25 23 20 19 19 19 19 19 21 21 18 15 13 13 13 10 8 7
2 3 6 6 2 6 3 4 4 2 5 9 21 5 5 30 25 17 13 20 30 33 36 35 33 30 27 24 22 20 19 20 19 19 19 18 16 15 14 13 10 8 5 4
4 4 7 3 5 8 4 5 4 3 5 8 2 6 21 26 28 25 20 19 25 32 33 37 35 32 28 24 22 20 22 21 20 19 19 18 17 14 13 11 8 5 3 1
2 3 7 7 4 1 5 10 11 11 14 16 17 22 20 23 25 29 28 12 22 29 35 37 33 30 28 25 24 24 23 21 20 19 18 17 16 16 13 9 6 4 3 2
7 5 3 6 10 18 17 17 17 19 21 20 23 21 23 26 25 25 26 17 16 28 37 39 36 33 29 26 27 26 24 22 20 17 16 15 13 12 10 8 6 5 3 3
2 3 5 8 24 21 17 14 14 16 19 19 23 23 26 27 26 22 22 22 11 24 34 41 40 34 28 26 27 26 25 23 22 21 20 17 14 11 9 8 6 4 1 1
6 10 25 22 9 20 18 18 23 21 17 17 18 21 23 23 22 22 18 16 16 18 32 40 38 35 30 26 25 23 23 23 22 21 19 17 15 12 8 6 4 3 3 5
10 20 21 22 34 28 24 27 28 28 27 24 20 21 23 23 21 22 19 17 18 23 30 36 35 31 29 25 23 21 20 21 21 20 18 15 12 10 8 7 5 4 6 8
21 31 28 24 29 34 38 40 38 29 23 22 22 22 23 22 21 20 21 16 18 23 29 33 34 32 25 26 27 16 18 21 19 20 15 11 7 4 1 1 2 5 8 10
17 18 19 21 23 24 25 26 24 27 27 25 26 25 22 21 18 17 21 17 16 21 27 29 27 24 22 18 21 23 16 15 19 18 14 9 8 6 4 3 4 6 9 11
11 16 21 25 26 28 26 23 23 23 22 24 23 24 22 20 14 15 18 18 20 24 25 28 29 31 31 30 28 23 24 16 12 10 10 10 13 9 7 7 7 8 9 12
26 27 28 26 26 27 26 23 19 20 20 16 17 19 17 17 12 17 21 29 32 30 30 31 27 29 28 27 24 18 18 21 20 15 14 15 13 10 8 8 8 8 10 11
24 23 27 29 31 31 29 25 22 22 19 20 17 18 14 14 15 20 28 31 23 22 21 22 24 25 25 22 19 19 21 22 19 16 15 13 11 10 6 7 7 8 9 10
23 25 23 26 32 32 32 28 24 23 21 18 19 18 15 17 20 26 35 30 28 26 29 24 22 24 23 22 20 19 20 18 14 12 11 11 9 6 4 6 6 6 8 8
20 21 23 24 26 27 28 27 22 21 21 19 20 18 17 20 22 25 28 34 31 29 24 25 22 22 23 23 17 18 15 12 11 11 9 7 5 3 3 3 4 4 4 4
19 28 27 28 28 25 25 20 17 17 18 19 19 18 18 20 21 27 36 34 30 28 27 25 24 25 25 23 18 14 12 11 9 8 5 3 3 4 2 2 3 3 4 6
25 31 27 29 29 23 21 18 17 16 16 18 17 19 21 19 17 25 40 34 33 30 29 27 27 25 22 19 15 14 14 14 13 12 11 9 6 6 6 5 6 5 7 7
26 34 26 33 12 6 11 16 16 17 18 18 20 19 19 21 21 29 28 36 34 29 27 26 23 21 18 17 18 19 20 19 17 16 14 12 11 9 9 8 8 9 9 9
18 26 25 30 18 7 1 4 6 5 5 7 8 12 16 22 30 39 38 38 33 30 28 27 23 20 20 22 22 21 21 20 19 19 17 15 15 16 15 15 15 15 15 15
16 21 23 20 33 36 25 19 18 17 13 5 11 8 19 18 22 21 41 37 34 33 30 27 25 27 27 26 25 23 22 21 19 18 18 18 17 16 15 15 16 16 18 19
17 18 22 21 29 29 32 25 18 20 20 18 16 13 20 25 26 28 34 32 30 29 29 28 29 27 25 24 20 17 16 17 14 14 15 16 15 14 14 14 14 13 16 16
19 15 17 16 22 23 20 21 23 17 16 18 20 21 19 19 20 30 30 29 27 25 26 28 26 23 19 17 14 11 9 10 9 10 10 10 11 12 12 13 11 10 13 14
16 19 21 23 23 20 17 14 11 10 11 10 12 15 21 21 13 19 26 25 24 23 22 23 22 19 17 14 12 9 7 5 4 4 6 5 8 9 9 9 11 12 14 14
Wind_Direction
238 251 216 242 263 230 202 220 195 242 211 245 272 270 276 292 283 261 230 218 223 229 230 232 237 240 244 240 234 235 243 251 257 255 252 243 235 240 240 262 279 292 294 291
278 267 284 261 256 263 231 227 260 259 257 326 304 301 290 286 270 251 230 221 216 216 218 224 232 230 226 234 236 232 237 242 244 250 242 229 227 231 242 259 271 286 292 294
263 338 311 314 269 258 202 72 320 216 301 332 311 316 325 306 256 253 232 218 213 212 214 215 220 223 224 224 226 229 233 233 238 238 229 220 223 229 244 251 271 285 291 296
243 352 245 205 356 115 112 18 354 331 331 310 293 297 350 11 294 271 246 229 219 217 216 215 216 216 216 218 220 221 221 224 225 222 217 217 222 231 238 251 270 277 288 301
195 210 305 296 81 67 35 296 314 309 325 326 337 285 62 11 359 306 267 245 237 228 216 210 209 210 209 211 210 209 210 212 215 215 214 214 218 224 230 248 255 269 286 308
114 251 241 230 117 311 169 261 207 254 326 337 6 32 294 349 352 339 265 256 242 237 223 208 205 207 205 206 207 213 218 214 208 206 207 212 215 218 226 230 240 251 278 323
228 240 281 312 276 282 160 258 211 254 305 337 347 294 325 346 353 343 320 247 250 235 217 207 203 201 204 210 215 212 207 203 202 203 206 210 211 208 211 217 221 243 260 47
109 186 273 357 3 325 298 317 299 291 297 307 312 315 318 334 338 337 344 273 254 237 215 206 204 206 207 207 206 200 196 197 199 199 200 200 201 196 195 199 214 236 243 254
182 220 276 338 311 313 306 293 300 297 302 302 304 309 311 321 330 330 327 338 273 242 220 209 208 209 206 201 199 192 188 188 192 189 187 185 188 184 179 178 187 204 237 250
9 277 250 281 316 303 307 287 301 297 305 302 296 299 303 313 321 327 316 305 291 255 232 218 211 204 204 204 197 192 184 183 183 183 176 170 168 162 163 157 161 160 144 5
272 306 302 300 311 319 322 310 301 309 297 306 301 306 314 310 309 311 301 277 253 241 241 229 208 199 197 197 193 190 181 177 177 176 174 170 165 154 151 141 122 86 54 27
265 266 263 274 291 287 295 295 300 305 302 301 300 305 320 319 304 296 294 261 231 221 221 216 202 190 188 188 186 187 187 180 183 182 177 172 170 161 150 132 103 53 25 8
266 289 289 287 288 286 288 288 291 293 294 297 301 303 304 308 302 286 281 264 233 217 211 203 192 183 179 176 173 185 190 179 188 187 174 175 175 166 205 127 24 7 344 338
294 293 287 284 288 294 287 285 279 282 282 285 292 294 290 295 296 264 254 250 229 209 196 188 175 157 150 149 139 156 170 179 188 179 170 189 214 220 239 281 309 322 322 327
277 286 286 295 294 294 297 290 277 277 271 270 276 289 283 286 285 247 233 212 196 183 176 166 158 147 148 158 153 157 155 174 196 190 191 216 223 226 245 265 281 305 315 323
306 301 296 289 293 296 293 295 280 276 281 280 289 295 276 279 253 252 218 180 169 162 161 164 167 166 166 163 157 156 191 212 211 222 227 215 221 228 243 263 281 301 311 320
304 293 301 293 290 292 295 284 279 278 280 287 291 298 278 257 241 229 205 181 176 175 182 176 169 164 163 162 153 156 190 190 192 193 201 208 226 239 248 276 306 308 309 314
321 313 306 291 285 285 285 285 276 273 272 279 286 289 264 238 237 231 209 197 183 178 176 174 176 172 165 162 147 163 180 185 184 195 209 212 211 231 264 285 291 302 307 316
318 326 316 300 287 279 277 275 268 267 268 263 274 278 264 240 237 231 208 199 185 170 167 164 172 181 166 156 155 170 175 186 199 198 199 206 212 219 251 275 288 299 324 351
327 332 330 320 314 279 264 258 260 260 256 256 268 264 249 240 234 228 213 194 185 175 168 165 177 177 167 155 164 175 178 179 178 167 154 166 142 127 138 153 84 30 16 8
335 338 332 323 302 274 244 243 253 263 265 260 259 260 249 249 228 194 188 180 165 173 172 170 171 167 163 158 160 161 150 144 134 125 124 120 114 101 85 63 51 29 7 4
338 338 339 349 337 287 237 236 256 272 274 263 257 251 239 236 220 197 179 179 168 166 169 163 162 162 161 155 147 140 133 127 117 107 96 87 78 72 66 53 40 30 25 20
334 354 357 3 28 26 196 248 280 291 301 264 252 231 232 218 199 176 171 169 158 158 159 159 157 154 151 144 136 130 122 110 100 92 85 82 77 69 67 70 67 58 44 30
18 12 20 14 42 68 72 75 73 65 58 50 232 226 210 195 158 191 156 150 152 157 154 149 150 150 145 135 129 124 114 103 94 89 81 72 67 66 65 64 60 53 51 47
23 26 39 38 30 45 62 70 78 69 60 62 63 78 152 131 139 156 151 149 150 153 149 147 147 147 143 136 133 127 114 102 93 86 78 72 63 59 56 52 48 49 46 45
23 33 42 55 50 37 44 52 58 66 60 74 84 76 109 120 139 156 149 149 150 152 151 154 160 160 160 146 148 144 135 111 100 85 78 73 62 51 45 42 38 37 39 35
28 40 52 54 49 48 52 73 92 88 68 52 84 134 121 132 132 158 157 155 152 156 160 162 166 170 172 173 179 180 179 166 161 97 74 59 46 38 34 27 25 24 30 25